#timestamp,LO_Frequency,Hit,StdDev 
1583561795.8,286047003.0,P
1583561815.6,286047004.1,P
1583561835.5,286047003.5,P
1583561855.3,286047003.6,Y
1583561875.1,286047000.1,P
1583561895.9,286046999.8,N
1583561915.7,286047002.1,N
1583561935.6,286047004.3,N
1583561955.4,286047005.0,N
1583561975.2,286047007.1,Y
1583561995.1,286047005.3,P
1583561996.0,286047005.3,P
1583562015.8,286047006.0,P
1583562035.6,286047004.0,N
1583562055.5,286047001.8,N
1583562075.3,286047005.6,Y
1583562095.2,286047002.2,P
1583562115.9,286047001.4,N
1583562135.7,286047001.5,N
1583562185.6,286047001.7,E
1583562195.5,286047000.1,N
1583562215.4,286047001.1,P
1583562235.2,286046997.0,P
1583562255.0,286046995.0,N
1583562255.9,286046995.0,N
1583562275.8,286046995.7,N
1583562295.6,286046995.6,N
1583562315.5,286046995.8,N
1583562335.3,286046998.8,N
1583562355.1,286047002.0,N
1583562375.9,286047003.6,N
1583562395.7,286047005.9,N
1583562415.5,286047006.7,N
1583562435.4,286047006.5,N
1583562455.2,286047007.1,N
1583562475.1,286047004.7,N
1583562476.0,286047004.7,N
1583562495.8,286047003.1,N
1583562515.6,286047003.7,N
1583562535.5,286047004.4,N
1583562555.3,286047004.3,N
1583562575.2,286047002.4,N
1583562595.9,286047001.6,N
1583562615.7,286047002.6,N
1583562635.6,286047003.2,N
1583562655.4,286047003.3,N
1583562675.2,286047003.4,N
1583562695.1,286047005.9,N
1583562696.0,286047005.9,N
1583562715.8,286047005.8,N
1583562735.7,286047004.2,N
1583562755.5,286047003.7,N
1583562775.3,286047001.9,N
1583562795.2,286046998.1,N
1583562815.0,286046998.3,N
1583562815.9,286046998.3,N
1583562835.8,286046996.5,N
1583562855.6,286046998.2,N
1583562875.4,286047000.6,N
1583562895.3,286047000.6,N
1583562915.1,286047000.7,N
1583562935.8,286047001.1,N
1583562955.7,286047001.0,N
1583562975.5,286046998.5,N
1583562995.4,286046999.3,N
1583563015.2,286046999.4,N
1583563035.0,286046998.9,N
1583563035.9,286046998.9,N
1583563055.8,286046999.6,N
1583563075.6,286046999.3,N
1583563095.4,286046999.6,N
1583563115.3,286046999.3,N
1583563135.1,286046997.5,N
1583563155.9,286046996.1,N
1583563175.7,286046993.5,N
1583563195.5,286046993.5,N
1583563215.4,286046993.5,N
1583563235.2,286046994.5,N
1583563255.0,286046992.1,N
1583563256.0,286046992.1,N
1583563275.8,286046996.4,N
1583563295.6,286046995.7,N
1583563315.5,286046993.4,N
1583563335.3,286046994.1,N
1583563355.1,286046994.0,N
1583563375.9,286046994.1,N
1583563395.7,286046996.2,N
1583563415.6,286046999.1,N
1583563435.4,286046998.5,N
1583563455.2,286047000.2,N
1583563475.1,286047001.8,N
1583563476.0,286047001.8,N
1583563495.8,286047003.9,N
1583563515.6,286047004.4,N
1583563535.5,286047004.2,N
1583563555.3,286047002.0,N
1583563575.2,286047002.1,N
1583563595.9,286047003.2,N
1583563615.7,286047003.4,N
1583563635.6,286047003.0,N
1583563655.4,286047004.7,N
1583563675.2,286047005.6,N
1583563695.1,286047003.4,N
1583563696.0,286047003.4,N
1583563715.8,286047003.6,N
1583563735.7,286047003.4,N
1583563755.5,286047005.9,N
1583563775.3,286047005.3,N
1583563795.2,286047004.6,N
1583563815.0,286047005.4,N
1583563815.9,286047005.4,N
1583563835.8,286047003.7,N
1583563855.6,286047003.5,N
1583563875.4,286047005.5,N
1583563895.3,286047002.9,N
1583563915.1,286047005.4,N
1583563935.8,286047005.2,N
1583563955.7,286047005.1,N
1583563975.5,286047006.0,Y
1583563995.4,286047001.5,P
1583564015.2,286047002.4,N
1583564035.0,286047000.6,N
1583564035.9,286047000.6,N
1583564055.8,286047000.1,N
1583564075.6,286047001.7,N
1583564095.4,286047001.6,N
1583564115.3,286047001.5,N
1583564135.1,286047002.6,N
1583564155.9,286047001.3,N
1583564175.7,286047004.2,Y
1583564195.5,286047004.1,P
1583564215.4,286047004.3,P
1583564235.2,286047002.0,N
1583564255.0,286046999.7,N
1583564256.0,286046999.7,N
1583564275.8,286047000.5,N
1583564295.6,286046998.9,N
1583564315.5,286046998.5,N
1583564335.3,286046998.8,N
1583564355.1,286046999.2,N
1583564375.9,286046995.4,N
1583564395.7,286046993.5,N
